TimeEDT,TemperatureF,Dew PointF,Humidity,Sea Level PressureIn,VisibilityMPH,Wind Direction,Wind SpeedMPH,Gust SpeedMPH,PrecipitationIn,Events,Conditions,WindDirDegrees,DateUTC
12:15 AM,46.4,26.6,46,29.88,10.0,WNW,5.8,-,N/A,,Overcast,290,2013-03-16 04:15:00
12:35 AM,46.4,26.6,46,29.87,10.0,NW,3.5,-,N/A,,Mostly Cloudy,310,2013-03-16 04:35:00
12:55 AM,44.6,28.4,53,29.86,10.0,NW,3.5,-,N/A,,Clear,310,2013-03-16 04:55:00
1:15 AM,42.8,28.4,57,29.86,10.0,WNW,4.6,-,N/A,,Clear,300,2013-03-16 05:15:00
1:35 AM,42.8,28.4,57,29.86,10.0,Calm,Calm,-,N/A,,Scattered Clouds,0,2013-03-16 05:35:00
1:55 AM,42.8,28.4,57,29.84,10.0,West,3.5,-,N/A,,Scattered Clouds,260,2013-03-16 05:55:00
2:15 AM,41.0,28.4,61,29.83,10.0,Calm,Calm,-,N/A,,Clear,0,2013-03-16 06:15:00
2:35 AM,42.8,28.4,57,29.83,10.0,Calm,Calm,-,N/A,,Clear,0,2013-03-16 06:35:00
2:55 AM,41.0,28.4,61,29.82,10.0,Calm,Calm,-,N/A,,Clear,0,2013-03-16 06:55:00
3:15 AM,37.4,28.4,70,29.81,10.0,South,4.6,-,N/A,,Clear,190,2013-03-16 07:15:00
3:35 AM,35.6,28.4,75,29.80,10.0,Calm,Calm,-,N/A,,Clear,0,2013-03-16 07:35:00
3:55 AM,35.6,28.4,75,29.79,10.0,Calm,Calm,-,N/A,,Clear,0,2013-03-16 07:55:00
4:15 AM,35.6,28.4,75,29.79,10.0,Calm,Calm,-,N/A,,Scattered Clouds,0,2013-03-16 08:15:00
4:35 AM,33.8,28.4,81,29.77,10.0,Calm,Calm,-,N/A,Thunderstorm,Mostly Cloudy,0,2013-03-16 08:35:00
4:55 AM,35.6,28.4,75,29.77,10.0,Calm,Calm,-,N/A,,Overcast,0,2013-03-16 08:55:00
5:15 AM,35.6,30.2,81,29.76,10.0,Calm,Calm,-,N/A,Rain,Light Rain,0,2013-03-16 09:15:00
5:35 AM,35.6,30.2,81,29.78,10.0,North,4.6,-,N/A,Rain,Rain,10,2013-03-16 09:35:00
6:15 AM,33.8,32.0,93,29.77,7.0,Calm,Calm,-,0.01,Rain,Light Rain,0,2013-03-16 10:15:00
6:35 AM,35.6,32.0,87,29.81,10.0,NNE,8.1,-,0.01,,Overcast,30,2013-03-16 10:35:00
6:55 AM,35.6,32.0,87,29.80,10.0,Calm,Calm,-,0.01,,Overcast,0,2013-03-16 10:55:00
7:15 AM,35.6,32.0,87,29.80,10.0,Calm,Calm,-,N/A,,Overcast,0,2013-03-16 11:15:00
7:35 AM,35.6,33.8,93,29.79,10.0,Calm,Calm,-,N/A,,Overcast,0,2013-03-16 11:35:00
7:55 AM,35.6,33.8,93,29.79,10.0,Calm,Calm,-,N/A,,Overcast,0,2013-03-16 11:55:00
8:15 AM,35.6,33.8,93,29.79,10.0,Calm,Calm,-,N/A,,Overcast,0,2013-03-16 12:15:00
8:35 AM,35.6,33.8,93,29.79,10.0,Calm,Calm,-,N/A,,Overcast,0,2013-03-16 12:35:00
8:55 AM,37.4,33.8,87,29.79,10.0,Calm,Calm,-,N/A,,Overcast,0,2013-03-16 12:55:00
9:15 AM,37.4,33.8,87,29.77,10.0,Calm,Calm,-,N/A,,Overcast,0,2013-03-16 13:15:00
9:35 AM,41.0,35.6,81,29.77,10.0,Calm,Calm,-,N/A,,Scattered Clouds,0,2013-03-16 13:35:00
9:55 AM,42.8,35.6,76,29.77,10.0,SW,3.5,-,N/A,,Scattered Clouds,220,2013-03-16 13:55:00
10:15 AM,44.6,39.2,81,29.75,10.0,South,4.6,-,N/A,,Scattered Clouds,190,2013-03-16 14:15:00
10:35 AM,48.2,39.2,71,29.75,10.0,SW,6.9,-,N/A,,Clear,220,2013-03-16 14:35:00
10:55 AM,50.0,39.2,66,29.75,10.0,SSW,6.9,-,0.01,,Clear,210,2013-03-16 14:55:00
11:15 AM,51.8,41.0,67,29.74,10.0,SSW,8.1,-,N/A,,Scattered Clouds,200,2013-03-16 15:15:00
11:35 AM,53.6,41.0,62,29.73,10.0,SW,11.5,-,N/A,,Mostly Cloudy,230,2013-03-16 15:35:00
11:55 AM,55.4,41.0,58,29.72,10.0,WSW,11.5,18.4,N/A,,Mostly Cloudy,240,2013-03-16 15:55:00
12:15 PM,57.2,41.0,55,29.72,10.0,West,12.7,18.4,N/A,,Mostly Cloudy,260,2013-03-16 16:15:00
12:35 PM,59.0,41.0,51,29.72,10.0,SW,16.1,20.7,N/A,,Scattered Clouds,230,2013-03-16 16:35:00
12:55 PM,59.0,39.2,48,29.72,10.0,WSW,12.7,18.4,N/A,,Scattered Clouds,250,2013-03-16 16:55:00
1:15 PM,60.8,37.4,42,29.72,10.0,WSW,18.4,25.3,N/A,,Mostly Cloudy,250,2013-03-16 17:15:00
1:35 PM,60.8,37.4,42,29.71,10.0,WSW,13.8,19.6,N/A,,Mostly Cloudy,240,2013-03-16 17:35:00
1:55 PM,62.6,37.4,39,29.70,10.0,West,15.0,20.7,N/A,,Mostly Cloudy,260,2013-03-16 17:55:00
2:15 PM,64.4,37.4,37,29.68,3.0,WSW,16.1,21.9,N/A,,Haze,240,2013-03-16 18:15:00
2:35 PM,64.4,37.4,37,29.67,4.0,West,12.7,21.9,N/A,,Haze,260,2013-03-16 18:35:00
2:55 PM,64.4,37.4,37,29.66,3.0,WSW,13.8,24.2,N/A,,Haze,250,2013-03-16 18:55:00
3:15 PM,64.4,37.4,37,29.65,7.0,WSW,15.0,23.0,N/A,,Mostly Cloudy,240,2013-03-16 19:15:00
3:35 PM,64.4,35.6,34,29.63,10.0,WSW,19.6,24.2,N/A,,Mostly Cloudy,250,2013-03-16 19:35:00
3:55 PM,64.4,35.6,34,29.64,10.0,WSW,19.6,32.2,N/A,,Mostly Cloudy,250,2013-03-16 19:55:00
4:15 PM,64.4,33.8,32,29.65,10.0,WNW,10.4,29.9,N/A,Thunderstorm,Overcast,300,2013-03-16 20:15:00
4:35 PM,51.8,44.6,76,29.72,10.0,NW,6.9,10.4,0.15,Rain-Thunderstorm,Light Thunderstorms and Rain,320,2013-03-16 20:35:00
4:55 PM,53.6,44.6,72,29.72,10.0,NW,4.6,-,0.15,,Scattered Clouds,320,2013-03-16 20:55:00
5:15 PM,57.2,44.6,63,29.72,10.0,WNW,5.8,-,N/A,,Scattered Clouds,300,2013-03-16 21:15:00
5:35 PM,59.0,44.6,59,29.72,10.0,WNW,8.1,-,N/A,Thunderstorm,Scattered Clouds,290,2013-03-16 21:35:00
5:55 PM,57.2,42.8,59,29.73,10.0,WNW,8.1,16.1,N/A,,Mostly Cloudy,290,2013-03-16 21:55:00
6:15 PM,57.2,42.8,59,29.74,10.0,WNW,8.1,-,N/A,,Scattered Clouds,300,2013-03-16 22:15:00
6:35 PM,57.2,42.8,59,29.74,10.0,West,6.9,-,N/A,,Scattered Clouds,280,2013-03-16 22:35:00
6:55 PM,55.4,42.8,63,29.75,10.0,West,3.5,-,N/A,,Scattered Clouds,260,2013-03-16 22:55:00
7:15 PM,55.4,42.8,63,29.75,10.0,Calm,Calm,-,N/A,,Mostly Cloudy,0,2013-03-16 23:15:00
7:35 PM,55.4,42.8,63,29.77,10.0,North,8.1,-,N/A,Thunderstorm,Thunderstorm,0,2013-03-16 23:35:00
7:55 PM,51.8,42.8,71,29.79,10.0,NNW,11.5,19.6,0.01,Rain-Thunderstorm,Thunderstorms and Rain,340,2013-03-16 23:55:00
8:15 PM,51.8,42.8,71,29.82,10.0,WNW,5.8,-,N/A,Rain,Light Rain,290,2013-03-17 00:15:00
8:35 PM,51.8,42.8,71,29.82,10.0,West,4.6,-,N/A,,Scattered Clouds,280,2013-03-17 00:35:00
8:55 PM,50.0,42.8,76,29.83,10.0,SW,3.5,-,N/A,,Scattered Clouds,230,2013-03-17 00:55:00
9:15 PM,48.2,42.8,82,29.84,10.0,Calm,Calm,-,N/A,,Scattered Clouds,0,2013-03-17 01:15:00
9:35 PM,48.2,42.8,82,29.86,10.0,Calm,Calm,-,N/A,,Mostly Cloudy,0,2013-03-17 01:35:00
9:55 PM,48.2,42.8,82,29.87,10.0,Calm,Calm,-,N/A,,Overcast,0,2013-03-17 01:55:00
10:15 PM,50.0,41.0,71,29.88,10.0,NNW,3.5,-,N/A,,Overcast,330,2013-03-17 02:15:00
10:35 PM,50.0,41.0,71,29.89,10.0,NNW,3.5,-,N/A,,Overcast,340,2013-03-17 02:35:00
10:55 PM,48.2,39.2,71,29.88,10.0,NNW,5.8,-,N/A,,Overcast,330,2013-03-17 02:55:00
11:15 PM,46.4,37.4,71,29.89,10.0,North,6.9,-,N/A,,Mostly Cloudy,350,2013-03-17 03:15:00
11:35 PM,46.4,37.4,71,29.89,10.0,NNW,4.6,-,N/A,,Mostly Cloudy,340,2013-03-17 03:35:00
11:55 PM,44.6,37.4,76,29.90,10.0,WNW,3.5,-,N/A,,Overcast,300,2013-03-17 03:55:00